[[{"header":{"parameterUnit":"m.s-1","parameterCategory":1,"la1":30.2991,"la2":30.254,"lo1":-89.0895,"lo2":-89.0444,"dy":0.0017,"dx":0.0017,"nx":28,"ny":28,"refTime":"2026-02-10T03:00:00:Z","depth":0,"parameterNumber":2,"parameterNumberName":"U-component_of_WINDS"},"data":[0,0,0,0,0,0,0,0,0,0,0,0,0,0,0,0,0,0,0,0,0,0,0,0,0,0,0,0,0,0,0,0,0,0,0,0,0,0,0,0,0,0,0,0,0,0,0,0,0,0,0,0,0,0,0,0,0,0,1.1168,1.1167,0,1.108,1.1079,1.1078,1.0993,1.0992,1.0991,1.099,1.0896,1.0894,1.0893,0,0,0,0,0,0,0,0,0,0,0,0,0,1.1261,1.1259,1.1168,1.1167,1.1166,1.108,1.1079,1.1077,1.0994,1.0992,1.0991,1.099,1.0896,1.0894,1.0893,0,0,0,0,0,0,0,0,0,0,0,0,0,1.1201,1.1259,1.1169,1.1114,1.1108,1.108,1.1078,1.1077,1.0994,1.0992,1.0991,1.0989,1.0897,1.0895,1.0892,1.091,0,0,1.0885,1.0884,0,0,0,0,0,0,0,0,1.1205,1.1198,1.1123,1.1118,1.1111,1.1046,1.1076,1.1021,1.0994,1.1037,1.099,1.0989,1.0947,1.094,1.0927,1.0905,1.0901,1.0885,1.0884,1.0883,1.0882,0,0,0,0,0,0,0,1.1209,1.1201,1.1133,1.1122,1.1115,1.1093,1.1082,1.1065,1.1002,1.1033,1.1027,1.1018,1.0943,1.0929,1.0924,1.09,1.0885,1.0883,1.0882,1.0881,1.0886,1.0887,0,0,0,0,0,0,1.1222,1.1205,1.1136,1.113,1.1155,1.1092,1.1081,1.1069,1.1002,1.099,1.1019,1.1014,1.0934,1.0927,1.092,1.0935,1.0883,1.088,1.0879,1.0884,1.0886,1.0887,0,0,0,0,0,0,1.1224,1.1217,1.1139,1.1166,1.1155,1.1092,1.1079,1.1068,1.1054,1.0991,1.0979,1.1017,1.0933,1.0924,1.0913,1.0931,1.0879,1.0877,1.0882,1.0885,1.0887,1.0966,0,0,0,0,0,0,1.1227,1.1218,1.1225,1.1167,1.1154,1.1135,1.108,1.1067,1.105,1.1043,1.0986,1.0975,1.0931,1.0917,1.091,1.0927,1.0875,1.088,1.0883,1.0886,1.0961,1.0971,1.0979,0,0,0,0,0,1.1231,1.125,1.1226,1.1218,1.1161,1.1136,1.1128,1.1078,1.1052,1.1058,1.1018,1.0977,1.093,1.0916,1.0909,1.0924,1.0879,1.0882,1.0886,1.0958,1.0969,1.0978,0,0,0,0,0,0,1.1311,1.1242,1.1214,1.1215,1.1183,1.1122,1.1128,1.1092,1.1065,1.1059,1.0996,1.0984,1.098,1.0951,1.0937,1.0937,1.0899,1.0901,1.0956,1.0966,1.0975,1.0981,1.0874,0,0,0,0,0,1.1329,1.1316,1.1255,1.1263,1.1248,1.1191,1.1178,1.1142,1.1105,1.109,1.1049,1.1014,1.099,1.0977,1.0952,1.0957,1.0942,1.0964,1.0972,1.098,1.0982,1.0981,1.0989,1.0899,1.0899,1.0899,0,0,1.1366,1.1326,1.1322,1.1278,1.1248,1.1234,1.118,1.1168,1.1156,1.1088,1.1075,1.1044,1.1,1.0997,1.0993,1.0972,1.1004,1.0984,1.099,1.0988,1.0985,1.0994,1.1001,1.0901,1.0901,1.09,0,0,1.1426,1.1395,1.1397,1.1369,1.1325,1.1287,1.1288,1.1233,1.1209,1.1196,1.1144,1.1129,1.1091,1.1061,1.1041,1.1089,1.105,1.1083,1.1127,1.1127,1.1134,1.114,1.1156,1.1163,1.1085,1.1086,1.1086,0,1.1477,1.1456,1.1403,1.1394,1.1375,1.1314,1.1315,1.1289,1.1239,1.1227,1.1205,1.1155,1.1121,1.1109,1.1121,1.1107,1.1105,1.1089,1.1138,1.1143,1.1148,1.1163,1.1169,1.109,1.1089,1.1089,1.1089,0,1.152,1.1506,1.1512,1.1467,1.1449,1.1445,1.139,1.1378,1.1343,1.1307,1.1294,1.1251,1.1216,1.121,1.1176,1.1193,1.1182,1.115,1.111,1.1162,1.1174,1.118,1.1096,1.1094,1.1093,1.1092,0,0,1.1628,1.1553,1.1557,1.1535,1.1481,1.1468,1.1461,1.1428,1.1418,1.1386,1.1377,1.1346,1.1315,1.1293,1.1254,1.1254,1.1294,1.1221,1.1219,1.1236,1.1309,1.1333,1.1341,1.1268,1.1268,1.1269,1.1312,0,1.1679,1.1663,1.1615,1.1613,1.1599,1.154,1.1533,1.1498,1.1464,1.1446,1.1407,1.1386,1.1348,1.1334,1.1331,1.129,1.1307,1.1286,1.1257,1.1257,1.127,1.1347,1.1373,1.1416,1.1317,1.1318,1.1318,0,1.1736,1.1708,1.1705,1.1652,1.1644,1.1639,1.1604,1.1588,1.1547,1.1522,1.1496,1.1454,1.1441,1.1405,1.1385,1.1371,1.1356,1.1334,1.1334,1.1329,1.1291,1.1344,1.1428,1.1435,1.1326,1.1325,1.1324,0,1.1814,1.1776,1.1769,1.1752,1.169,1.1687,1.1661,1.1618,1.1601,1.1571,1.1559,1.1526,1.1509,1.1484,1.1433,1.1411,1.1418,1.1378,1.1396,1.1397,1.14,1.14,1.1483,1.1391,1.1391,1.1391,1.1391,0,1.1875,1.1876,1.1803,1.1799,1.1797,1.1741,1.174,1.1708,1.1671,1.1658,1.1604,1.1593,1.1527,1.1508,1.1467,1.1456,1.1449,1.1427,1.1416,1.1432,1.1434,1.1421,1.1416,1.1393,1.1392,1.1392,1.1392,0,1.1963,1.1914,1.1903,1.1845,1.183,1.1831,1.178,1.1773,1.1736,1.172,1.1713,1.1654,1.1628,1.1575,1.1535,1.1507,1.1505,1.1487,1.152,1.1513,1.1534,1.1532,1.161,1.1616,1.1522,1.1523,1.1524,0,1.2005,1.2004,1.1946,1.1934,1.191,1.1892,1.1874,1.1818,1.1802,1.1755,1.1753,1.1723,1.1697,1.1658,1.161,1.1579,1.1558,1.1587,1.1553,1.1568,1.1557,1.1558,1.1557,1.1595,1.1597,1.1598,1.1598,0,1.2084,1.206,1.2038,1.2007,1.1988,1.1961,1.193,1.1923,1.1859,1.1844,1.1817,1.1797,1.1756,1.1726,1.1688,1.1658,1.1617,1.161,1.1612,1.1627,1.1646,1.1636,1.154,1.1608,1.1607,1.1606,1.1606,1.1606,1.2149,1.2145,1.2104,1.208,1.2052,1.2025,1.2015,1.1976,1.1954,1.1917,1.1885,1.1861,1.1819,1.1762,1.1736,1.1715,1.1695,1.1699,1.1699,1.1701,1.1707,1.165,1.1708,1.1707,1.1707,1.1707,1.1707,0,1.2225,1.2196,1.2175,1.2134,1.2116,1.208,1.2044,1.203,1.2011,1.1975,1.195,1.192,1.1891,1.1841,1.1807,1.18,1.178,1.1793,1.1793,1.1786,1.1727,1.1728,1.181,1.181,1.181,1.181,1.181,1.181,1.2263,1.2254,1.2225,1.2201,1.217,1.2148,1.2131,1.2104,1.2076,1.2044,1.2021,1.1989,1.1946,1.1909,1.1881,1.1866,1.1856,1.1875,1.1855,1.18,1.1791,1.1781,1.1782,1.1873,1.1873,1.1915,1.1915,1.1916]},{"header":{"parameterUnit":"m.s-1","parameterCategory":1,"la1":30.2991,"la2":30.254,"lo1":-89.0895,"lo2":-89.0444,"dy":0.0017,"dx":0.0017,"nx":28,"ny":28,"refTime":"2026-02-10T03:00:00:Z","depth":0,"parameterNumber":3,"parameterNumberName":"V-component_of_WINDS"},"data":[0,0,0,0,0,0,0,0,0,0,0,0,0,0,0,0,0,0,0,0,0,0,0,0,0,0,0,0,0,0,0,0,0,0,0,0,0,0,0,0,0,0,0,0,0,0,0,0,0,0,0,0,0,0,0,0,0,0,2.3261,2.3259,0,2.3075,2.3073,2.3071,2.2961,2.296,2.296,2.2959,2.2764,2.276,2.2755,0,0,0,0,0,0,0,0,0,0,0,0,0,2.3515,2.3511,2.3262,2.3259,2.3257,2.3076,2.3073,2.307,2.2961,2.296,2.296,2.2959,2.2766,2.276,2.2754,0,0,0,0,0,0,0,0,0,0,0,0,0,2.3375,2.351,2.3262,2.318,2.3171,2.3076,2.3073,2.307,2.2961,2.296,2.2959,2.2959,2.2768,2.2761,2.2754,2.2724,0,0,2.2732,2.2729,0,0,0,0,0,0,0,0,2.3383,2.3365,2.3195,2.3186,2.3175,2.3041,2.3091,2.2954,2.2961,2.3041,2.2959,2.2958,2.2856,2.2842,2.2808,2.2715,2.2706,2.2731,2.2727,2.2724,2.2722,0,0,0,0,0,0,0,2.3392,2.3373,2.3188,2.3192,2.3181,2.3151,2.313,2.3064,2.2955,2.3034,2.3025,2.3005,2.2851,2.2816,2.2803,2.2703,2.2731,2.2725,2.2721,2.2718,2.2573,2.2573,0,0,0,0,0,0,2.3416,2.3382,2.3193,2.3182,2.328,2.3147,2.3124,2.3084,2.2955,2.2935,2.3006,2.3,2.2828,2.2811,2.2796,2.2751,2.2724,2.2717,2.2713,2.2572,2.2573,2.2573,0,0,0,0,0,0,2.3422,2.34,2.3201,2.3279,2.3252,2.3143,2.31,2.3081,2.3046,2.2934,2.2913,2.299,2.2827,2.2806,2.2742,2.2743,2.2714,2.2707,2.2572,2.2573,2.2573,2.2663,0,0,0,0,0,0,2.343,2.3403,2.3393,2.328,2.3248,2.3153,2.31,2.3078,2.3034,2.3026,2.2914,2.2895,2.2825,2.2753,2.2735,2.2732,2.2702,2.2571,2.2572,2.2573,2.2659,2.2666,2.2672,0,0,0,0,0,2.3439,2.3424,2.3393,2.337,2.3233,2.3153,2.3135,2.3056,2.3035,2.3022,2.295,2.2898,2.2746,2.2748,2.2726,2.2722,2.2571,2.2572,2.2573,2.2656,2.2665,2.2672,0,0,0,0,0,0,2.3538,2.3408,2.3372,2.332,2.3249,2.3135,2.3116,2.3068,2.2999,2.2994,2.2897,2.2873,2.2819,2.2763,2.2768,2.2684,2.2652,2.2649,2.2723,2.273,2.2737,2.2751,2.2696,0,0,0,0,0,2.3555,2.3503,2.3391,2.3357,2.3323,2.3226,2.3188,2.3134,2.3055,2.3024,2.2947,2.2871,2.2805,2.2765,2.2698,2.265,2.2623,2.2636,2.2642,2.2648,2.2647,2.2615,2.2619,2.2577,2.2577,2.2577,0,0,2.3587,2.351,2.3483,2.3375,2.3313,2.3259,2.3201,2.3147,2.3106,2.3015,2.2951,2.2891,2.28,2.2744,2.2715,2.2696,2.2652,2.265,2.2655,2.265,2.2617,2.2621,2.2625,2.2577,2.2577,2.2577,0,0,2.3619,2.3556,2.352,2.3459,2.3367,2.3302,2.3293,2.3186,2.3143,2.3077,2.3007,2.2955,2.2846,2.2783,2.2737,2.2743,2.2692,2.2724,2.2758,2.2729,2.2732,2.2735,2.2736,2.2738,2.2722,2.2722,2.2723,0,2.3671,2.359,2.3507,2.3457,2.3411,2.3326,2.3288,2.3232,2.3122,2.3091,2.3071,2.293,2.2862,2.279,2.2791,2.2757,2.2742,2.2737,2.2739,2.274,2.2741,2.2742,2.2743,2.2727,2.2726,2.2726,2.2726,0,2.3657,2.3602,2.3583,2.3481,2.3432,2.3388,2.3296,2.3256,2.3205,2.3142,2.3074,2.299,2.2905,2.2883,2.2832,2.2802,2.2793,2.2758,2.2723,2.2751,2.275,2.2749,2.2733,2.2732,2.273,2.2729,0,0,2.3749,2.36,2.3595,2.3546,2.3437,2.3391,2.3342,2.3259,2.3226,2.3152,2.3108,2.3015,2.2981,2.2929,2.287,2.2844,2.2853,2.281,2.2807,2.2821,2.2813,2.2841,2.2843,2.2818,2.2818,2.2818,2.282,0,2.3765,2.3675,2.3598,2.3536,2.3482,2.34,2.3356,2.3283,2.3222,2.3166,2.3097,2.3034,2.2994,2.2961,2.2932,2.2858,2.285,2.2857,2.2774,2.2772,2.2801,2.2842,2.2872,2.2879,2.2819,2.2819,2.2819,0,2.3772,2.3703,2.3637,2.3531,2.3505,2.3468,2.3385,2.3333,2.3247,2.3204,2.3145,2.3083,2.3025,2.2996,2.2914,2.292,2.2881,2.284,2.2838,2.2828,2.2798,2.2833,2.2879,2.288,2.2817,2.2818,2.2818,0,2.3846,2.3735,2.368,2.3641,2.3517,2.3493,2.3439,2.3353,2.3308,2.3234,2.3203,2.3124,2.3081,2.3019,2.2937,2.2924,2.2862,2.2827,2.2824,2.2826,2.2816,2.2817,2.2857,2.279,2.279,2.279,2.279,0,2.3872,2.3834,2.3712,2.3678,2.3632,2.3542,2.3498,2.3437,2.3361,2.3312,2.3235,2.319,2.3084,2.3026,2.296,2.2901,2.2882,2.2844,2.2828,2.2852,2.2856,2.2825,2.2823,2.2791,2.2791,2.2791,2.2791,0,2.3947,2.3864,2.3798,2.3686,2.3656,2.3627,2.3529,2.3492,2.3426,2.3365,2.3346,2.3241,2.3169,2.308,2.2979,2.2934,2.2881,2.2856,2.2911,2.2902,2.2903,2.2905,2.2924,2.2922,2.2858,2.2859,2.286,0,2.397,2.3939,2.3823,2.3786,2.3735,2.3676,2.3629,2.3538,2.3492,2.3391,2.3366,2.3287,2.322,2.3107,2.3022,2.2943,2.2915,2.2927,2.2903,2.2927,2.2915,2.2918,2.2914,2.2934,2.2935,2.2936,2.2937,0,2.4019,2.3979,2.3916,2.3839,2.3786,2.3719,2.3649,2.3622,2.3516,2.3468,2.3394,2.3342,2.3238,2.3161,2.3071,2.3013,2.2957,2.2945,2.294,2.2965,2.2998,2.298,2.2929,2.2945,2.2944,2.2944,2.2943,2.2943,2.4068,2.4037,2.395,2.3882,2.382,2.3756,2.3715,2.3644,2.3581,2.349,2.3439,2.3366,2.3278,2.3151,2.3096,2.3035,2.3015,2.3008,2.3006,2.3006,2.3013,2.3007,2.3018,2.3018,2.3018,2.3017,2.3017,0,2.4114,2.4054,2.3992,2.3897,2.3843,2.3795,2.3715,2.3672,2.3609,2.3532,2.3467,2.3381,2.3305,2.3212,2.3129,2.3099,2.3071,2.308,2.3082,2.3069,2.3036,2.3049,2.3104,2.3104,2.3104,2.3104,2.3104,2.3104,2.4131,2.4075,2.4024,2.3934,2.3873,2.3802,2.376,2.37,2.3638,2.3545,2.3482,2.3422,2.3338,2.3249,2.3176,2.315,2.3123,2.3141,2.3108,2.3079,2.3072,2.3064,2.3076,2.3136,2.3136,2.3145,2.3145,2.3145]}]]